This demonstration page uses our WeatherBlox Daily Observations layout. Learn more.

Left ArrowRight Arrow

34.74481, -87.66753

Hourly Observations for December 18, 2017

Temp ( °F °C ) Dew Point ( °F °C ) Humidity (%) Winds ( mph kmh ) Pressure ( in mb ) Visibility ( mi km ) Precip ( " mm )
12:53 am 00:53 Cloudy 49 9.4 46 7.8 90 90 SSE 6 9 30.15 1021 10 16 0.00 0.00
1:53 am 01:53 Cloudy 49 9.4 45 7.2 86 86 SE 5 7 30.15 1021 10 16 0.00 0.00
2:53 am 02:53 Cloudy 49 9.4 46 7.8 90 90 Calm 30.17 1022 10 16 0.00 0.00
3:53 am 03:53 Cloudy 49 9.4 46 7.8 90 90 Calm 30.17 1022 10 16 0.00 0.00
4:38 am 04:38 Cloudy 48 8.9 46 7.8 93 93 SE 3 6 30.18 1022 10 16 0.00 0.00
4:53 am 04:53 Cloudy 48 8.9 46 7.8 93 93 Calm 30.18 1022 10 16 0.00 0.00
5:29 am 05:29 Cloudy 48 8.9 46 7.8 93 93 Calm 30.18 1022 10 16 0.00 0.00
5:53 am 05:53 Cloudy 48 8.9 46 7.8 93 93 SSE 3 6 30.18 1022 10 16 0.00 0.00
6:02 am 06:02 Cloudy 48 8.9 46 7.8 93 93 Calm 30.18 1022 10 16 0.00 0.00
6:53 am 06:53 Cloudy 48 8.9 46 7.8 93 93 Calm 30.19 1022 10 16 0.00 0.00
7:53 am 07:53 Cloudy 49 9.4 47 8.3 93 93 Calm 30.21 1023 10 16 0.00 0.00
8:53 am 08:53 Cloudy 50 10 48 8.9 93 93 S 5 7 30.22 1023 10 16 0.00 0.00
9:53 am 09:53 Cloudy 52 11.1 49 9.4 89 89 WSW 8 13 30.22 1023 10 16 0.00 0.00
10:53 am 10:53 Cloudy 54 12.2 50 10 87 87 W 10 17 30.22 1023 10 16 0.00 0.00
11:35 am 11:35 Cloudy 57 13.9 51 10.6 81 81 WNW 8 13 30.21 1023 10 16 0.00 0.00
11:53 am 11:53 Mostly Cloudy 56 13.3 49 9.4 77 77 WNW 12 19 30.19 1022 10 16 0.00 0.00
12:12 pm 12:12 Partly Cloudy 56 13.3 49 9.4 77 77 W 9 15 30.18 1022 10 16 0.00 0.00
12:53 pm 12:53 Mostly Sunny 58 14.4 49 9.4 72 72 W 6 9 30.16 1022 10 16 0.00 0.00
1:53 pm 13:53 Sunny 61 16.1 49 9.4 65 65 W 7 11 30.16 1021 10 16 0.00 0.00
2:53 pm 14:53 Sunny 61 16.1 49 9.4 65 65 W 6 9 30.16 1021 10 16 0.00 0.00
3:53 pm 15:53 Sunny 59 15 49 9.4 69 69 W 3 6 30.15 1021 10 16 0.00 0.00
4:53 pm 16:53 Clear 53 11.7 45 7.2 74 74 W 6 9 30.15 1021 10 16 0.00 0.00
5:53 pm 17:53 Clear 53 11.7 48 8.9 83 83 NW 6 9 30.18 1022 10 16 0.00 0.00
6:53 pm 18:53 Clear 51 10.6 47 8.3 86 86 SW 5 7 30.19 1022 10 16 0.00 0.00
7:53 pm 19:53 Clear 48 8.9 45 7.2 89 89 Calm 30.20 1023 10 16 0.00 0.00
8:53 pm 20:53 Clear 48 8.9 45 7.2 89 89 W 3 6 30.21 1023 10 16 0.00 0.00
9:48 pm 21:48 Mostly Clear with Mist and Fog 45 7 43 6 93 93 Calm 30.21 1023 6 10 0.00 0.00
9:53 pm 21:53 Partly Cloudy 44 6.7 42 5.6 93 93 Calm 30.21 1023 8 13 0.00 0.00
10:07 pm 22:07 Mostly Cloudy 45 7.2 43 6.1 93 93 Calm 30.21 1023 7 11 0.00 0.00
10:18 pm 22:18 Partly Cloudy 44 6.7 42 5.6 93 93 Calm 30.21 1023 10 16 0.00 0.00
10:30 pm 22:30 Mostly Cloudy 44 6.7 43 6.1 96 96 Calm 30.21 1023 7 11 0.00 0.00
10:53 pm 22:53 Cloudy 45 7.2 43 6.1 93 93 Calm 30.22 1023 10 16 0.00 0.00
11:12 pm 23:12 Cloudy 47 8.3 45 7.2 93 93 Calm 30.21 1023 10 16 0.00 0.00
11:48 pm 23:48 Cloudy 48 9 46 8 94 94 Calm 30.21 1023 10 16 0.00 0.00
11:53 pm 23:53 Cloudy 48 8.9 46 7.8 93 93 Calm 30.21 1023 10 16 0.00 0.00

Powered by AerisWeather